Probability
12 13 17 21 25 27 27 25 23 21 20 19 16 15 12 8 6 4 3 3 3 3 2 1 1 0 0 0 0 0 0 0 0 0 0 0 0 0 0 0 0 0 1
12 13 16 18 20 24 24 23 21 19 17 17 15 13 11 8 6 4 4 3 3 3 2 1 1 0 0 0 0 0 0 0 0 0 0 0 0 0 0 0 0 0 1
9 12 13 13 16 19 21 19 18 16 14 14 12 10 8 7 5 4 4 4 3 3 2 1 0 0 0 0 0 0 0 0 0 0 0 0 0 0 0 0 0 0 1
6 9 10 10 12 15 18 19 19 17 15 12 10 8 6 4 4 3 4 3 3 3 1 0 0 0 0 0 0 0 0 0 0 0 0 0 0 0 0 0 0 0 0
2 5 7 7 7 10 16 20 20 19 15 11 8 6 4 3 3 3 3 3 3 2 1 0 0 0 0 0 0 0 0 0 0 0 0 0 0 0 0 0 0 0 0
2 3 4 4 5 7 12 16 19 18 14 10 6 4 3 3 3 3 3 3 2 1 0 0 0 0 0 0 0 0 0 0 0 0 0 0 0 0 0 0 0 0 0
4 4 4 5 7 8 10 13 16 15 12 8 4 2 2 3 3 3 3 3 2 1 0 0 0 0 0 0 0 0 0 0 0 0 0 0 0 0 0 0 0 0 0
4 4 5 6 8 8 9 12 14 13 10 6 2 1 2 3 3 3 3 3 2 1 0 0 0 0 0 0 0 0 0 0 0 0 0 0 0 0 0 0 0 0 0
1 2 4 5 6 8 9 11 13 12 9 3 1 1 2 2 3 3 3 2 2 1 0 0 0 0 0 0 0 0 0 0 0 0 0 0 0 0 0 0 0 0 0
0 1 2 3 5 8 10 11 12 12 8 4 1 1 2 3 4 3 3 2 1 0 0 0 0 0 0 0 0 0 0 0 0 0 0 0 0 0 0 0 0 0 0
0 0 1 2 5 8 11 13 14 13 9 5 4 4 5 5 5 4 3 3 2 1 0 0 0 0 0 0 0 0 0 0 0 0 0 0 0 0 0 0 0 0 0
0 0 1 2 4 7 11 15 15 13 9 6 7 9 10 11 10 7 5 4 3 3 2 1 1 1 0 0 0 0 0 0 0 0 0 0 0 0 0 0 0 0 0
0 0 1 3 5 8 12 15 14 11 8 8 11 14 18 19 16 11 7 5 5 5 5 3 3 2 1 1 0 0 0 0 0 0 0 0 0 0 0 0 0 0 0
1 2 4 6 8 10 14 15 14 11 10 14 19 22 24 25 20 14 10 8 7 6 6 5 4 3 3 2 1 0 0 0 0 0 0 0 0 0 0 0 1 1 0
3 4 7 10 13 17 19 21 21 21 22 25 27 28 30 29 24 17 13 11 9 7 5 4 3 3 3 2 1 0 0 0 0 0 1 1 1 0 0 0 1 1 1
5 7 10 15 21 26 28 31 34 38 38 34 31 31 32 32 27 20 15 14 11 7 5 4 3 3 3 1 1 0 0 0 1 2 3 2 1 0 0 0 1 1 0
7 9 13 21 28 34 37 39 43 46 46 39 31 29 30 30 27 20 16 16 14 11 9 7 6 5 3 1 0 0 0 1 2 5 6 4 2 0 0 0 0 0 0
11 13 17 24 32 38 41 43 45 46 44 39 33 28 26 27 25 20 16 17 17 17 16 13 12 11 7 2 0 0 0 1 3 6 8 7 4 1 0 0 0 0 0
13 15 17 22 30 38 41 43 44 42 39 37 33 27 23 23 23 20 17 18 20 21 19 18 18 19 13 4 0 0 0 1 3 6 7 6 4 1 0 0 0 0 0
12 12 14 18 25 33 39 42 43 38 32 29 27 23 19 19 20 20 20 20 21 20 18 17 20 22 17 6 0 0 0 1 3 6 5 3 1 0 0 0 1 0 0
9 11 14 18 21 26 33 37 37 32 25 20 18 18 16 14 14 18 20 20 19 18 17 19 22 23 17 8 1 0 0 1 2 4 3 1 0 0 0 0 0 0 0
7 10 14 17 17 20 25 28 27 24 18 15 14 15 14 10 8 12 17 18 16 15 16 20 22 22 17 7 2 0 0 0 1 2 2 1 0 0 0 0 0 0 0
6 8 12 14 13 13 17 20 20 17 15 14 14 15 14 11 9 10 12 14 13 11 12 14 14 14 11 6 2 1 0 0 0 1 1 0 0 0 0 0 0 0 0
5 6 9 10 9 7 9 13 15 14 14 14 15 16 17 16 13 12 10 10 10 8 7 6 4 4 4 3 3 2 1 0 0 0 0 0 0 0 0 0 0 0 1
5 6 8 8 6 5 6 7 8 9 10 12 14 15 15 15 13 11 8 6 6 5 4 2 1 1 1 1 1 1 1 1 0 0 0 0 0 0 0 0 0 2 3
5 6 8 7 6 6 6 5 4 5 7 9 11 12 12 12 9 9 7 5 3 2 1 1 0 1 0 0 0 0 0 1 0 0 0 0 0 0 0 0 1 3 5
Wind_Speed
8 8 9 9 9 9 9 9 9 8 6 5 5 5 5 4 4 4 5 5 4 4 2 2 3 0 1 1 1 2 1 2 3 5 4 3 4 2 2 2 3 3 3
9 9 10 10 9 9 9 9 9 9 7 5 3 3 4 4 4 4 5 5 4 4 3 1 2 1 1 1 0 2 3 2 2 4 5 4 3 4 1 2 2 2 3
10 11 11 11 11 10 10 9 8 8 7 6 5 5 4 4 5 5 5 4 4 4 2 2 1 1 2 1 1 2 2 3 2 3 5 5 4 3 2 0 1 2 3
11 11 12 12 11 10 9 9 8 8 7 7 6 7 5 5 5 4 4 5 4 3 3 3 2 2 2 1 3 0 2 3 3 1 2 4 5 6 3 2 1 1 3
12 12 12 12 11 11 10 9 9 8 8 6 7 6 6 5 5 5 5 4 4 4 3 3 3 3 2 1 2 1 3 3 4 3 3 3 3 5 6 5 4 4 3
12 12 12 12 11 11 10 10 9 8 8 7 7 6 5 5 5 5 5 5 4 4 4 4 3 3 2 2 2 2 3 3 3 4 4 4 4 4 5 6 6 5 4
13 13 13 14 13 13 12 11 11 9 9 8 7 7 6 7 6 6 5 4 4 4 5 4 3 2 2 2 2 3 3 3 3 4 4 4 4 5 5 6 6 7 6
13 14 14 14 13 13 13 12 12 11 10 9 8 7 7 6 5 5 4 4 3 3 4 4 3 3 3 3 3 4 3 3 4 4 4 5 4 4 5 6 7 7 6
15 15 15 15 15 14 13 13 13 11 11 10 9 8 7 6 4 5 5 4 3 3 5 5 4 4 4 3 4 3 3 3 5 4 4 5 4 4 5 5 6 7 8
15 15 15 15 14 14 14 13 13 12 11 11 10 8 8 7 6 6 5 4 4 4 5 5 5 5 5 5 5 5 4 4 4 4 4 5 5 4 5 5 6 6 8
15 15 14 15 14 14 14 13 13 13 12 12 11 9 9 8 8 7 7 6 6 6 6 6 5 5 5 5 5 5 4 6 5 5 5 6 6 6 6 5 6 6 7
15 15 15 14 14 15 15 14 14 14 13 12 11 11 10 9 9 8 8 7 7 7 7 6 6 6 6 6 6 6 6 6 6 6 6 7 6 6 7 6 7 7 7
15 15 15 15 15 15 14 14 15 14 14 13 13 12 11 11 10 9 8 8 7 7 7 7 7 7 6 6 7 7 7 7 7 7 7 8 7 8 7 7 8 7 7
14 14 14 15 15 14 14 14 15 14 14 13 13 12 12 11 11 10 9 9 9 8 8 8 8 8 8 8 7 7 7 8 8 8 8 9 9 9 9 8 9 8 9
14 15 14 14 14 14 14 14 14 14 13 13 13 13 12 11 11 10 10 10 9 9 9 8 8 9 8 8 8 7 8 8 9 9 9 10 8 7 8 9 9 8 8
13 14 14 13 14 14 13 13 13 13 13 13 13 12 12 11 11 11 11 10 10 9 9 9 9 10 8 5 6 8 9 8 9 10 10 10 10 12 14 14 14 12 12
10 12 13 13 12 12 12 13 13 12 13 13 12 12 11 11 11 11 11 10 10 9 9 10 10 10 9 7 10 11 10 11 10 10 10 10 9 8 11 13 17 17 18
6 8 9 11 11 11 11 10 11 12 12 12 11 11 11 11 11 10 10 10 9 9 9 10 10 10 9 10 12 11 12 12 12 12 12 12 12 11 10 12 12 13 13
3 4 6 7 8 9 9 10 10 11 11 11 10 10 11 10 10 10 10 9 8 9 9 9 10 10 10 10 12 11 10 11 13 13 13 13 14 11 9 12 13 14 13
0 1 3 4 5 6 8 8 8 8 9 9 8 8 8 9 9 9 8 7 7 8 9 9 9 10 10 8 10 11 9 11 11 11 12 13 15 12 11 12 13 14 13
3 4 4 5 4 5 6 7 6 6 6 6 6 6 7 7 7 6 6 6 6 6 7 7 8 9 10 9 10 12 9 10 11 11 10 10 11 14 14 14 14 14 12
6 6 6 6 6 6 6 5 4 3 4 4 5 5 5 5 5 5 5 5 5 6 7 7 8 8 8 9 8 11 13 12 11 12 12 10 6 10 12 13 14 13 11
8 7 7 8 7 7 6 6 4 4 4 4 4 4 4 3 3 4 5 5 5 6 6 6 7 7 6 6 9 11 13 14 11 12 13 12 9 9 11 16 16 13 11
9 8 8 9 8 7 7 6 5 4 4 4 3 3 3 3 2 1 2 3 3 4 5 6 6 7 7 7 6 5 6 9 11 12 12 13 15 14 14 12 12 12 12
8 8 9 9 9 7 6 5 4 3 4 4 3 2 2 2 1 1 1 3 2 3 5 6 6 7 8 6 7 8 9 9 9 10 10 11 11 11 11 11 11 11 11
8 8 8 8 8 7 6 5 4 3 3 3 2 1 1 1 0 1 2 2 4 3 6 7 8 7 8 10 11 12 12 12 10 9 12 12 12 12 12 11 10 10 10
Wind_Direction
170 168 168 163 159 159 159 158 155 154 159 157 164 159 159 156 152 149 143 152 147 140 152 125 129 186 86 22 329 308 271 292 321 291 277 245 231 247 247 266 283 273 274
164 163 165 163 163 166 167 162 164 161 165 156 158 154 140 155 143 141 141 158 156 165 170 158 187 134 145 165 307 310 311 326 330 313 302 279 206 188 212 251 253 298 283
175 169 171 171 169 171 175 168 164 162 162 157 159 147 148 167 159 159 160 160 167 176 172 181 217 181 231 146 253 280 296 314 311 329 315 310 330 327 190 211 288 305 308
177 171 171 172 172 173 173 167 164 161 162 175 176 177 181 178 162 170 154 159 174 184 183 192 196 227 252 174 238 130 293 293 300 292 297 316 338 308 303 235 209 250 278
179 176 173 172 171 171 169 163 163 161 166 175 169 184 188 171 162 167 149 177 166 184 189 192 200 215 238 234 294 261 283 288 307 316 310 301 272 268 290 302 309 288 281
177 177 173 171 172 170 168 163 163 164 166 173 172 187 176 172 169 180 170 191 179 186 180 193 203 220 235 212 234 252 239 287 313 305 302 297 296 297 295 293 289 297 299
175 174 173 171 171 173 172 170 170 168 171 174 177 179 177 177 182 195 186 210 192 186 172 191 202 218 214 220 233 234 270 259 266 275 288 296 295 300 298 296 299 299 291
176 175 175 173 174 175 175 175 175 175 176 177 177 177 182 194 184 192 203 199 212 185 159 188 200 208 211 220 220 246 234 246 261 271 288 286 283 292 290 295 301 297 292
178 178 178 178 180 181 180 180 177 178 181 180 177 182 189 198 179 175 207 201 194 184 183 196 200 203 210 227 235 250 252 246 252 253 238 261 281 275 285 286 289 295 298
180 181 181 183 184 183 182 183 181 183 185 184 187 183 186 188 187 199 197 196 194 197 196 200 203 206 208 214 234 238 222 243 247 263 283 278 276 281 276 278 278 279 286
182 181 182 184 184 184 182 185 185 186 188 190 190 187 188 188 191 197 194 191 196 193 204 208 211 214 216 217 226 249 239 243 250 251 249 255 276 280 282 273 272 273 276
183 183 184 184 185 187 187 187 189 191 192 190 189 190 191 191 196 196 195 193 195 201 204 211 217 222 222 223 230 242 244 246 251 256 260 261 258 257 269 278 278 278 281
187 186 186 186 189 191 192 192 193 195 193 190 192 192 193 194 200 200 196 197 200 206 209 212 221 226 229 230 234 242 247 250 254 257 259 261 262 261 265 268 273 275 270
189 191 190 192 193 194 194 197 198 196 195 192 194 195 197 198 200 199 199 202 205 210 214 217 223 228 232 234 237 239 245 252 256 257 259 260 259 259 263 262 262 267 275
193 196 198 196 197 197 197 200 200 198 196 194 197 198 198 199 200 200 202 204 209 215 216 222 226 230 233 234 235 243 245 249 255 255 254 255 255 267 266 273 275 272 269
202 202 202 200 198 199 199 198 199 195 193 197 201 199 198 198 202 202 204 206 211 219 221 227 233 236 239 196 208 244 258 255 255 258 259 258 237 234 230 243 256 265 268
211 209 206 204 201 199 196 196 195 190 192 198 202 198 198 201 205 207 207 209 212 217 225 231 235 241 240 203 208 222 250 257 258 259 261 263 263 245 250 235 227 238 242
219 216 210 204 200 195 193 193 187 185 190 195 199 199 202 204 205 209 212 214 218 221 227 234 239 244 241 209 213 217 238 254 257 256 256 258 265 261 257 263 258 253 243
228 222 212 198 189 187 186 184 187 185 188 193 198 199 202 205 204 209 213 215 218 225 231 234 239 244 247 219 214 217 247 251 255 256 257 257 259 252 231 251 260 262 262
76 168 165 167 164 171 168 173 180 183 189 191 195 196 198 205 208 211 214 216 219 228 238 241 243 249 255 237 213 212 250 259 262 260 257 247 244 250 220 241 254 258 261
84 99 107 111 119 137 149 163 169 177 184 181 181 186 191 201 210 213 217 224 227 238 247 253 253 254 256 249 221 212 245 265 269 270 268 265 219 223 224 232 250 257 268
83 94 99 95 93 105 122 132 138 143 152 156 160 171 178 195 193 199 210 220 230 235 244 251 258 259 254 250 240 219 228 253 268 271 273 274 226 220 226 231 244 249 255
81 86 94 95 89 88 97 103 96 101 120 133 140 149 158 172 184 198 207 215 221 243 254 259 265 270 272 259 237 234 234 237 249 267 274 281 260 244 240 237 237 236 240
80 81 84 83 77 76 75 76 80 95 110 114 116 130 141 143 140 225 234 246 252 261 271 274 278 282 282 282 286 281 264 248 247 259 264 250 244 243 255 255 229 229 239
77 78 80 80 79 75 73 73 78 100 108 112 120 125 119 105 133 206 289 279 303 315 290 290 292 294 292 313 337 312 299 299 304 305 282 270 260 251 246 244 242 241 239
84 84 82 80 81 80 74 72 80 92 102 108 102 102 103 104 261 271 260 229 254 252 247 254 271 287 287 299 299 291 284 279 277 274 267 267 266 264 263 260 255 248 248